Location: Lecco
(45.8566°N, 9.3977°E)
Time: 03:26:52
(UTC+02:00)

S-56A Canister/Altair - Pass Details

Date: 22 July 2019
Orbit: 633 x 2499 km, 38.9° (Epoch: 22 August)

Event Time Altitude Azimuth Distance (km) Brightness Sun altitude
Rises 11:19:56 0° 271° (W) 5,666 11.7 53.3°
Reaches altitude 10° 11:23:25 10° 268° (W) 4,831 11.4 53.8°
Maximum altitude 11:37:27 62° 193° (SSW) 2,727 11.5 55.7°
Drops below altitude 10° 11:51:41 10° 118° (ESE) 4,895 12.3 57.6°
Sets 11:55:15 0° 115° (ESE) 5,742 12.4 58.0°
